Weather Roundup
Issued by NWS Chicago, IL

Current Version | Previous Version | Text Only | Print | Product List | Glossary On
Versions: 1 2 3 4 5 6 7 8 9 10 11 12 13 14 15 16 17 18 19 20 21 22 23 24 25 26 27 28 29 30 31 32 33 34 35 36 37 38 39 40 41 42 43 44 45 46 47 48 49 50
623
NZUS59 KLOT 191703
HRRLOT

CHICAGO AREA WEATHER ROUNDUP
NATIONAL WEATHER SERVICE CHICAGO/ROMEOVILLE IL
1200 PM CDT SAT AUG 19 2017

NOTE: "FAIR" INDICATES FEW OR NO CLOUDS BELOW 12,000 FEET WITH NO
SIGNIFICANT WEATHER AND/OR OBSTRUCTIONS TO VISIBILITY.

* THESE STATIONS ARE NOT UNDER NWS QUALITY CONTROL. THEY ALSO MAY NOT
  REPORT WEATHER SUCH AS PRECIPITATION OR FOG.

ILZ005-006-012>014-019>023-191800-
NORTHEAST ILLINOIS

CITY           SKY/WX    TMP DP  RH WIND       PRES   REMARKS
OHARE          MOSUNNY   80  56  43 VRB6      29.96F HX  80
MIDWAY         MOSUNNY   80  59  48 NE7       29.96F HX  81
AURORA         SUNNY     77  61  57 VRB3      29.98F
LANSING*       SUNNY     78  57  47 N9        29.97S
JOLIET*        SUNNY     78  59  50 CALM      29.97S HX  80
WAUKEGAN       SUNNY     78  60  53 CALM      29.96F
DUPAGE AIRPORT SUNNY     77  60  55 VRB3      29.97S
WHEELING       SUNNY     78  60  53 E5        29.98S
MORRIS*        SUNNY     77  62  59 NE3       29.97S
NORTHERLY ISL    N/A     73  62  68 NE8         N/A
$$

WIZ051-052-058>065-066-070>072-191800-
SOUTHEAST WISCONSIN

CITY           SKY/WX    TMP DP  RH WIND       PRES   REMARKS
MILWAUKEE      MOSUNNY   78  59  51 CALM      29.96S
KENOSHA*       SUNNY     76  59  55 VRB3      29.97F
RACINE*        SUNNY     77  60  55 NW8       29.98S
WAUKESHA       MOSUNNY   72  61  68 SW6       29.99S
$$

INZ001>003-010>013-019-020-191800-
NORTHWEST INDIANA

CITY           SKY/WX    TMP DP  RH WIND       PRES   REMARKS
GARY*          SUNNY     77  59  53 N6        29.98S
MICHIGAN CITY* NOT AVBL
RENSSELAER*    NOT AVBL
VALPARAISO     SUNNY     79  63  57 NE7       29.98R HX  80
$$

LMZ740>746-191800-
SOUTHERN LAKE MICHIGAN

STATION/POSITION TIME  SKY/WX   TEMP WIND        PRES    VSBY
                                AIR  DIR/SP/G
                 (UTC)          (F)  (DEG/KT/KT) (MB)    (MI)
HARRISON CRIB    1640            71   40/  3/  3   N/A
BURNHAM HARBOR   NOT AVBL
CALUMET HARBOR   1630            72   50/  5/  7 1014.7S
BURNS HARBOR     1640            71  350/  5/  7 1015.6R
MICHIGAN CITY    1640            73  330/  6/  7   N/A
$$

ABBREVIATIONS USED IN REMARKS
   TC - TEMPERATURE IN CELSIUS
  WCI - WIND CHILL INDEX
   HX - HEAT INDEX
  VSB - VISIBILITY
$$




USA.gov is the U.S. government's official web portal to all federal, state and local government web resources and services.